Temp
72 70 68 67 56 49 42 51 54 59 64 67 70 70 71 72 69 63 75 81 78 76 76 78 79 79 79 79 79 78 78 78 78 78 78 78 78 78 78 78 78 79 79 80 79 79 79 79 79
72 75 69 59 49 42 45 52 56 60 67 72 71 69 67 71 80 80 73 78 80 77 76 77 79 79 79 79 78 78 78 78 78 78 78 78 78 78 78 78 78 79 79 80 80 80 79 79 79
74 74 64 56 44 44 48 55 59 65 70 68 69 76 74 74 78 78 78 77 79 77 77 76 79 79 79 79 78 78 78 78 78 78 78 78 78 78 78 78 78 79 80 80 80 80 79 79 78
72 69 60 51 52 55 58 58 62 65 70 71 72 69 78 83 81 80 78 78 78 76 77 77 78 79 79 79 78 78 78 78 78 78 78 78 78 77 77 77 78 79 80 80 80 79 78 78 78
69 63 50 47 52 58 63 64 64 64 65 70 71 70 71 78 78 78 78 80 78 75 76 77 78 79 79 79 78 78 78 77 78 78 78 78 77 77 77 77 78 78 79 79 79 78 77 77 77
61 61 47 47 56 62 65 66 64 63 65 71 71 71 72 76 76 76 78 76 78 75 74 76 79 78 78 78 78 78 78 77 77 77 77 77 77 77 77 77 77 78 78 79 78 77 76 76 76
58 56 49 53 56 59 66 69 65 63 65 69 72 68 72 81 75 76 75 74 74 75 74 75 76 78 78 78 78 77 77 77 77 77 77 77 77 76 76 77 77 77 77 78 77 77 76 76 76
63 58 48 53 58 57 67 69 68 66 69 77 77 67 70 72 75 74 72 70 69 70 72 71 73 75 75 76 77 77 77 76 76 76 76 76 76 76 76 75 76 77 77 77 76 76 76 75 75
66 52 45 55 58 59 68 65 71 73 70 72 75 73 78 76 77 73 70 69 68 71 69 69 71 72 73 73 76 77 77 77 76 76 76 75 74 74 75 74 76 76 76 76 76 76 75 75 75
57 47 54 63 64 62 67 66 68 68 68 67 71 77 80 78 75 72 72 68 68 69 68 68 69 69 70 75 74 74 74 75 75 75 75 74 73 71 72 74 75 76 76 76 76 75 75 76 71
51 49 59 63 65 67 65 66 70 67 66 67 67 71 76 77 76 75 76 76 68 71 72 70 69 69 71 72 70 71 70 74 74 73 73 73 70 70 71 69 71 70 75 71 74 73 72 70 70
49 57 60 61 66 65 64 68 66 68 69 72 73 74 74 75 72 74 76 77 76 75 72 72 70 69 68 68 69 69 69 68 69 69 69 68 66 66 67 67 67 67 68 68 68 68 69 69 69
48 52 58 61 61 62 66 64 65 66 73 75 74 75 73 73 73 72 72 73 79 76 73 73 69 69 70 67 68 68 68 69 68 67 68 67 66 65 65 65 65 66 66 66 66 66 67 67 68
50 51 54 58 60 61 62 64 66 69 72 74 73 73 74 74 74 72 71 69 71 78 75 75 71 71 72 70 70 70 69 68 68 68 69 68 67 65 65 64 64 64 65 65 65 66 66 66 67
51 46 51 54 54 56 61 56 59 68 71 69 70 71 71 72 74 73 72 70 71 74 77 73 74 73 69 70 69 70 70 71 70 70 69 69 67 66 66 65 64 65 65 65 65 65 65 65 66
44 43 38 47 53 58 57 48 61 65 65 66 67 67 68 69 70 71 72 70 71 71 74 74 78 73 70 71 72 74 72 71 72 71 70 70 69 68 66 65 65 65 64 65 65 64 64 64 64
40 34 35 44 50 51 50 47 59 63 63 62 64 65 67 66 68 69 71 71 70 69 70 71 73 72 71 70 70 72 71 72 72 71 71 70 69 69 68 67 66 64 64 65 65 64 65 63 63
35 35 39 40 48 49 46 48 54 59 60 59 60 63 64 66 67 70 70 71 69 69 68 68 73 74 73 71 70 69 74 72 72 73 73 72 70 69 68 66 65 65 64 64 64 64 64 65 65
42 40 39 44 50 47 45 47 52 55 56 56 58 58 61 63 68 70 71 71 69 67 67 67 67 68 70 69 70 69 71 73 75 74 74 71 71 69 68 68 66 66 65 65 64 64 64 63 65
43 39 38 44 50 47 45 46 52 53 54 56 57 58 58 60 63 67 67 68 67 65 64 65 67 67 69 75 72 70 71 72 72 72 71 71 71 70 69 68 66 66 66 64 64 64 62 64 64
40 38 38 39 45 46 44 42 44 50 53 56 57 58 58 57 58 59 63 63 63 63 63 64 64 67 67 68 68 67 67 67 68 69 69 71 71 70 70 68 68 66 67 65 65 64 64 62 62
36 46 45 43 38 29 44 27 40 45 47 51 54 54 54 56 56 56 58 58 59 63 63 63 63 64 67 67 70 70 75 75 78 79 72 68 70 70 70 69 69 67 67 66 65 65 64 64 62
43 47 43 42 35 31 35 28 34 45 43 45 50 53 53 54 54 55 56 57 59 59 58 60 60 61 66 67 70 74 73 78 77 66 68 66 68 70 70 69 68 67 67 68 66 65 64 65 64
48 42 38 34 31 24 32 31 29 38 42 46 52 52 54 54 55 55 56 56 56 57 57 58 58 59 62 64 66 70 71 72 65 63 66 65 65 67 69 69 68 68 67 67 66 66 65 65 65
41 32 23 23 23 24 35 31 36 44 50 49 49 51 53 52 52 52 53 55 56 56 57 58 59 58 60 62 64 68 71 71 67 68 69 64 64 65 66 67 67 67 68 67 67 66 66 65 65
35 33 21 16 20 23 36 27 34 46 50 50 51 50 51 52 51 51 53 54 55 58 58 57 57 57 59 61 63 66 69 72 72 71 71 69 68 67 67 68 68 68 68 68 68 67 67 65 65
35 29 34 22 24 22 28 33 42 49 47 48 49 50 49 51 52 54 54 53 54 57 57 56 57 58 58 60 62 64 67 67 69 66 67 66 66 67 67 68 68 68 69 69 68 67 66 66 65
40 42 26 24 18 18 26 28 32 40 44 46 47 47 49 51 52 56 56 54 56 57 57 56 56 58 59 60 62 66 66 67 67 64 65 66 66 67 67 67 68 69 69 69 68 67 66 65 65
35 31 31 28 26 23 23 29 39 41 44 43 45 49 50 53 53 55 56 56 56 57 56 56 57 58 59 60 60 62 62 64 64 65 65 66 66 67 67 68 68 69 69 68 67 66 66 65 64
40 35 32 23 21 28 20 29 47 46 44 45 45 48 51 52 53 52 53 55 55 57 56 56 57 58 60 62 61 60 62 63 64 65 65 66 67 67 68 69 69 69 68 67 67 65 66 65 63
MSLP
1009.51 1009.43 1009.41 1009.62 1011.29 1012.50 1012.09 1011.22 1009.99 1008.75 1007.60 1006.50 1006.09 1005.95 1005.57 1004.97 1005.18 1004.51 1002.48 1002.38 1003.01 1004.24 1005.51 1006.42 1006.70 1006.86 1007.39 1007.85 1008.32 1008.74 1009.04 1009.44 1009.73 1010.10 1010.53 1011.05 1011.55 1011.77 1012.14 1012.47 1012.74 1012.93 1013.13 1013.39 1013.72 1013.99 1014.23 1014.38 1014.65
1009.24 1009.40 1009.55 1010.37 1011.61 1012.45 1011.66 1010.49 1009.46 1008.46 1007.37 1006.07 1005.40 1005.03 1005.15 1003.55 1003.12 1002.91 1002.70 1002.94 1002.60 1003.45 1005.02 1005.88 1006.44 1006.52 1007.10 1007.51 1008.00 1008.52 1009.07 1009.43 1009.89 1010.20 1010.59 1011.01 1011.52 1011.88 1012.13 1012.42 1012.74 1013.00 1013.26 1013.56 1013.74 1014.07 1014.32 1014.54 1014.70
1009.00 1009.60 1010.14 1010.82 1011.61 1011.26 1010.74 1009.67 1008.76 1007.78 1006.86 1006.40 1005.48 1004.38 1004.00 1002.70 1002.02 1001.77 1001.66 1002.90 1003.12 1003.82 1004.84 1005.60 1006.07 1006.07 1006.64 1007.32 1008.02 1008.43 1008.94 1009.33 1009.84 1010.39 1010.65 1011.04 1011.43 1011.83 1012.20 1012.46 1012.73 1013.05 1013.35 1013.67 1013.82 1014.04 1014.34 1014.68 1014.87
1009.07 1009.95 1011.03 1010.81 1010.77 1010.09 1009.44 1008.85 1008.28 1007.42 1006.38 1005.97 1005.37 1004.40 1003.06 1001.90 1001.78 1001.01 1001.59 1002.64 1003.28 1003.94 1004.92 1005.71 1006.31 1006.31 1006.30 1006.90 1007.71 1008.08 1008.60 1009.16 1009.75 1010.27 1010.84 1011.09 1011.38 1011.67 1012.22 1012.44 1012.62 1012.97 1013.36 1013.69 1013.87 1014.04 1014.28 1014.56 1014.85
1009.33 1010.26 1011.08 1010.77 1009.97 1009.25 1008.66 1008.11 1007.60 1007.21 1006.77 1005.93 1005.26 1004.25 1003.59 1003.24 1002.71 1001.65 1001.23 1002.68 1002.89 1004.16 1005.10 1005.74 1006.33 1006.52 1006.62 1006.90 1007.61 1007.93 1008.49 1008.96 1009.54 1010.03 1010.61 1011.00 1011.40 1011.59 1011.98 1012.28 1012.44 1012.79 1013.23 1013.49 1013.93 1014.09 1014.22 1014.47 1014.73
1009.90 1010.44 1011.11 1010.55 1008.98 1008.49 1007.98 1007.58 1007.26 1006.92 1006.47 1005.62 1005.12 1004.14 1003.29 1002.97 1002.76 1003.27 1002.45 1003.52 1003.96 1004.25 1005.36 1005.94 1006.41 1006.79 1006.77 1006.99 1007.50 1007.80 1008.40 1008.98 1009.39 1009.80 1010.29 1010.70 1011.21 1011.54 1011.78 1012.01 1012.24 1012.49 1012.87 1013.29 1013.79 1014.15 1014.31 1014.39 1014.62
1009.72 1010.19 1010.27 1009.65 1008.58 1008.19 1007.57 1006.98 1007.09 1006.89 1006.30 1005.51 1004.97 1004.38 1003.96 1002.80 1003.19 1003.44 1003.22 1003.77 1004.36 1005.01 1005.54 1006.17 1006.41 1006.74 1007.02 1007.29 1007.61 1007.90 1008.42 1008.85 1009.10 1009.52 1010.09 1010.47 1010.94 1011.44 1011.71 1012.06 1012.38 1012.59 1012.83 1013.11 1013.50 1013.95 1014.20 1014.38 1014.54
1009.59 1009.77 1009.90 1009.25 1008.73 1008.11 1007.22 1007.02 1006.70 1006.72 1006.36 1005.54 1005.03 1005.09 1004.62 1004.54 1004.44 1004.03 1004.11 1004.45 1004.98 1005.49 1005.82 1006.20 1006.52 1006.82 1007.13 1007.55 1007.91 1008.29 1008.63 1008.95 1009.40 1009.74 1009.98 1010.33 1010.69 1011.22 1011.78 1012.02 1012.31 1012.52 1012.90 1013.15 1013.67 1013.94 1014.19 1014.33 1014.46
1009.44 1009.97 1009.64 1008.71 1008.21 1007.89 1006.93 1007.18 1006.45 1006.28 1006.40 1006.13 1005.48 1005.39 1004.85 1004.57 1004.58 1004.91 1005.47 1005.12 1005.62 1005.83 1006.11 1006.72 1006.69 1006.97 1007.14 1007.45 1007.98 1008.41 1008.90 1009.39 1009.51 1009.98 1010.28 1010.39 1010.54 1011.08 1011.50 1011.81 1012.04 1012.25 1012.72 1013.10 1013.56 1013.84 1013.99 1014.25 1014.35
1009.79 1010.03 1009.39 1008.19 1007.68 1007.61 1007.14 1007.21 1006.81 1006.41 1006.07 1006.09 1005.52 1005.07 1004.59 1004.43 1004.52 1004.92 1005.44 1005.92 1005.44 1006.12 1006.33 1006.76 1007.08 1007.08 1007.17 1007.25 1007.73 1008.14 1008.78 1009.26 1009.69 1010.01 1010.45 1010.62 1010.74 1010.97 1011.29 1011.80 1012.14 1012.18 1012.46 1012.74 1013.14 1013.60 1013.89 1014.15 1014.30
1010.08 1009.79 1009.09 1008.29 1008.14 1007.86 1006.86 1006.99 1006.86 1006.50 1005.40 1005.60 1005.74 1005.15 1004.73 1004.29 1004.44 1004.81 1004.87 1005.59 1005.64 1006.07 1006.46 1006.76 1007.09 1007.51 1007.20 1007.26 1007.49 1008.02 1008.63 1009.22 1009.63 1010.10 1010.27 1010.65 1011.05 1011.07 1011.46 1011.70 1012.13 1012.17 1012.36 1012.66 1012.95 1013.32 1013.74 1014.08 1014.38
1010.34 1009.82 1009.31 1008.93 1008.36 1008.16 1007.54 1006.69 1006.62 1006.20 1005.33 1005.75 1005.81 1005.54 1004.95 1004.60 1004.63 1004.66 1004.37 1004.45 1004.99 1005.56 1006.12 1006.52 1006.99 1007.13 1007.38 1007.40 1007.47 1007.90 1008.43 1009.07 1009.45 1009.90 1010.34 1010.58 1011.23 1011.57 1011.71 1011.64 1011.96 1012.13 1012.28 1012.74 1012.99 1013.39 1013.68 1014.10 1014.12
1010.59 1010.42 1009.83 1009.24 1008.95 1008.37 1007.97 1007.12 1005.76 1004.83 1005.75 1005.65 1005.44 1005.48 1005.11 1004.67 1004.53 1004.26 1004.28 1004.73 1003.99 1004.43 1005.03 1005.59 1006.33 1007.02 1006.94 1007.53 1007.42 1007.66 1008.31 1008.74 1008.89 1009.52 1009.90 1010.12 1010.79 1011.08 1011.33 1011.82 1012.22 1012.21 1012.14 1012.45 1012.91 1013.16 1013.35 1013.71 1013.89
1010.83 1010.60 1010.16 1009.61 1009.02 1008.68 1008.21 1007.01 1006.33 1004.81 1005.35 1005.35 1005.59 1005.44 1004.96 1004.67 1004.45 1004.25 1004.08 1004.29 1004.67 1003.99 1004.05 1004.32 1005.23 1006.12 1006.75 1006.90 1007.13 1007.20 1007.79 1008.29 1008.79 1008.76 1009.09 1009.70 1010.25 1010.69 1010.95 1011.17 1011.85 1012.41 1012.06 1012.17 1012.36 1012.62 1013.01 1013.36 1013.58
1010.83 1010.69 1009.95 1009.21 1008.74 1008.39 1007.75 1006.95 1006.26 1005.82 1005.33 1005.32 1005.64 1005.45 1005.04 1004.72 1004.28 1003.89 1003.68 1004.15 1003.82 1003.57 1003.81 1003.82 1004.36 1004.96 1006.10 1006.27 1006.83 1007.17 1007.05 1007.58 1008.17 1008.00 1008.30 1008.72 1009.44 1010.12 1010.39 1010.70 1011.22 1011.38 1011.77 1012.08 1012.14 1012.40 1012.91 1013.30 1013.52
1011.53 1011.49 1010.97 1009.84 1009.50 1008.56 1008.38 1007.49 1007.12 1006.53 1005.86 1005.69 1005.96 1005.85 1005.72 1005.32 1004.89 1004.24 1003.58 1003.62 1003.49 1003.42 1003.12 1003.35 1003.94 1004.39 1004.91 1005.82 1006.30 1006.77 1007.07 1007.45 1007.81 1007.70 1008.83 1008.35 1008.56 1009.15 1009.52 1009.92 1010.23 1010.66 1011.40 1011.67 1011.81 1012.15 1012.76 1013.03 1013.28
1012.27 1012.23 1011.74 1010.69 1009.68 1009.50 1009.17 1008.61 1007.48 1006.97 1006.49 1006.54 1006.29 1006.09 1006.08 1005.71 1005.10 1004.41 1004.04 1003.41 1003.32 1003.59 1003.64 1003.65 1003.64 1003.39 1004.66 1005.25 1005.85 1006.04 1006.47 1006.97 1007.16 1007.21 1007.42 1007.92 1008.28 1008.93 1008.91 1009.35 1009.59 1010.20 1010.90 1011.39 1011.44 1011.79 1012.18 1012.54 1012.81
1012.68 1012.37 1011.80 1011.30 1010.32 1009.96 1009.61 1009.24 1008.79 1008.12 1007.35 1006.78 1006.59 1006.32 1006.01 1006.05 1005.38 1004.78 1004.44 1003.63 1003.26 1003.29 1003.53 1003.95 1003.29 1003.52 1003.92 1004.49 1005.14 1005.74 1005.94 1006.12 1006.61 1005.83 1005.64 1006.29 1006.88 1006.82 1007.91 1008.59 1009.33 1009.85 1010.56 1010.93 1011.06 1011.39 1011.71 1011.98 1012.27
1012.30 1012.33 1012.04 1011.35 1010.63 1010.44 1009.81 1009.04 1008.77 1008.22 1007.57 1006.87 1006.72 1006.54 1006.30 1006.03 1005.59 1005.07 1004.77 1003.96 1003.61 1003.16 1003.23 1003.07 1003.69 1003.18 1003.31 1003.65 1004.48 1004.96 1005.09 1005.21 1004.98 1004.70 1005.07 1006.37 1005.53 1006.41 1007.14 1008.02 1008.90 1009.30 1009.80 1009.96 1010.36 1010.86 1011.20 1011.63 1012.08
1012.02 1012.15 1012.17 1011.73 1011.29 1011.30 1010.61 1009.00 1007.93 1007.73 1007.39 1007.15 1007.03 1006.81 1006.33 1006.09 1005.79 1005.36 1005.04 1004.75 1004.49 1003.78 1003.11 1002.95 1003.16 1003.15 1003.29 1002.83 1003.29 1003.98 1004.60 1004.82 1004.24 1003.85 1005.16 1005.04 1005.77 1005.98 1006.38 1007.18 1008.12 1008.80 1009.39 1009.72 1009.91 1010.24 1010.82 1011.21 1011.62
1011.70 1011.98 1012.14 1012.34 1011.93 1011.46 1010.87 1008.57 1008.18 1007.68 1007.22 1006.92 1006.81 1006.39 1006.35 1006.30 1006.09 1005.71 1005.52 1005.22 1004.59 1004.40 1003.87 1003.39 1002.94 1002.43 1002.46 1003.05 1003.08 1003.57 1004.10 1004.29 1004.24 1004.33 1004.47 1004.58 1004.70 1005.38 1006.18 1006.23 1007.34 1008.13 1008.46 1008.84 1009.28 1009.64 1010.05 1010.64 1011.15
1011.51 1011.70 1012.02 1012.27 1012.61 1012.89 1012.03 1010.37 1008.72 1007.97 1007.78 1007.35 1006.70 1006.70 1006.47 1006.55 1006.24 1005.79 1005.52 1005.12 1004.62 1004.49 1004.26 1004.00 1002.99 1002.26 1001.89 1001.89 1002.56 1002.86 1002.79 1003.06 1002.91 1002.94 1003.36 1003.86 1004.27 1005.14 1005.06 1005.72 1006.67 1007.35 1007.63 1008.09 1008.45 1008.85 1009.35 1009.92 1010.47
1011.51 1011.81 1012.46 1012.89 1013.32 1013.51 1012.93 1012.40 1009.44 1008.16 1007.97 1007.70 1007.44 1006.96 1006.65 1006.41 1006.39 1006.12 1005.55 1005.07 1004.57 1004.28 1004.15 1003.71 1003.02 1002.49 1001.78 1001.54 1001.86 1001.78 1001.78 1001.72 1001.77 1002.13 1002.53 1002.98 1003.50 1003.90 1004.17 1005.10 1005.82 1006.37 1006.90 1007.31 1007.82 1008.28 1008.59 1009.11 1009.56
1011.72 1012.37 1013.11 1013.73 1014.30 1014.47 1013.45 1012.95 1009.32 1008.76 1007.97 1007.57 1006.83 1006.59 1006.45 1006.35 1006.01 1006.03 1005.74 1005.07 1004.49 1003.97 1003.60 1003.36 1002.95 1001.99 1001.35 1001.01 1000.98 1001.10 1001.18 1001.07 1001.42 1001.80 1002.15 1002.40 1002.71 1003.20 1003.66 1004.26 1004.84 1005.42 1006.15 1006.53 1006.94 1007.38 1007.81 1008.31 1008.82
1012.42 1013.59 1014.84 1015.22 1015.37 1014.87 1013.85 1012.96 1009.29 1008.22 1007.63 1007.37 1007.08 1006.44 1006.09 1005.91 1005.76 1005.51 1005.40 1005.00 1004.12 1003.66 1003.28 1002.76 1002.08 1001.35 1000.83 1000.68 1000.58 1000.24 1000.26 1000.33 1000.35 1000.83 1001.23 1001.67 1002.19 1002.67 1002.45 1003.43 1004.25 1004.86 1005.36 1005.89 1006.35 1006.76 1007.31 1007.85 1008.31
1012.84 1014.23 1015.75 1016.15 1016.11 1015.23 1014.14 1012.26 1008.88 1007.46 1006.90 1006.72 1006.65 1006.42 1006.02 1005.67 1005.55 1005.34 1004.92 1004.57 1004.01 1003.21 1002.65 1002.34 1001.93 1001.26 1000.65 1000.23 999.74 999.64 999.57 999.86 1000.21 1000.04 1000.42 1000.62 1001.09 1001.14 1001.89 1003.10 1003.67 1004.21 1004.82 1005.31 1005.83 1006.33 1006.88 1007.32 1007.72
1013.26 1014.42 1015.06 1015.90 1016.12 1015.46 1013.22 1011.01 1008.69 1007.09 1006.88 1006.62 1006.53 1006.41 1006.24 1005.72 1005.12 1004.59 1004.12 1003.78 1003.40 1002.88 1002.21 1001.71 1001.27 1000.66 1000.20 999.78 999.30 999.11 999.09 999.01 999.51 999.76 999.76 999.84 1000.36 1000.77 1001.81 1002.62 1003.23 1003.78 1004.29 1004.85 1005.42 1006.05 1006.44 1006.73 1007.23
1012.72 1013.78 1015.35 1016.46 1016.63 1015.41 1012.28 1010.86 1008.23 1007.35 1006.91 1006.58 1006.56 1006.56 1006.11 1005.58 1004.89 1003.85 1003.58 1003.27 1002.83 1002.32 1001.63 1001.01 1000.67 1000.12 999.60 999.31 999.01 998.48 998.26 998.20 998.54 999.19 999.60 999.59 1000.02 1000.49 1001.41 1002.28 1002.75 1003.41 1004.08 1004.62 1005.08 1005.62 1005.92 1006.45 1007.01
1013.17 1013.87 1014.91 1015.78 1015.87 1015.05 1012.90 1008.85 1007.15 1006.97 1006.76 1006.77 1006.71 1006.29 1006.02 1005.24 1004.53 1003.75 1002.96 1002.69 1002.14 1001.41 1000.83 1000.17 999.86 999.39 998.70 998.33 998.02 997.79 997.62 997.67 997.97 998.40 998.86 999.17 999.65 1000.28 1001.18 1001.74 1002.24 1002.96 1003.73 1004.30 1004.75 1005.12 1005.69 1006.28 1006.88
1012.84 1013.48 1014.28 1015.12 1015.14 1014.51 1013.21 1007.78 1006.82 1006.41 1006.65 1006.62 1006.61 1006.11 1005.74 1005.40 1004.25 1003.76 1003.12 1002.30 1001.84 1001.01 1000.20 999.50 998.64 998.48 997.74 997.15 996.84 996.62 996.64 997.11 997.50 997.77 998.16 998.72 999.28 1000.09 1000.63 1001.30 1001.76 1002.62 1003.46 1003.90 1004.55 1004.93 1005.55 1006.13 1006.76
Wind_Speed
6 5 1 5 5 6 3 7 2 4 7 2 1 4 7 7 7 8 6 16 18 20 17 19 23 24 24 24 22 21 20 19 19 19 19 18 17 17 16 15 14 13 13 12 11 9 9 8 8
3 1 3 3 6 1 6 4 5 3 5 9 8 3 4 14 13 8 4 8 18 23 18 18 23 25 24 24 23 22 21 20 19 19 19 19 18 16 16 15 14 14 13 12 11 10 8 8 8
2 2 2 4 4 6 5 5 5 5 9 4 5 6 4 6 2 5 5 11 16 20 18 17 24 25 25 24 22 22 22 21 20 20 20 19 18 16 15 15 13 14 13 12 11 10 9 7 7
2 3 4 5 8 5 5 2 6 7 5 1 4 9 6 5 3 8 13 16 17 19 16 18 22 23 25 25 23 23 22 22 21 20 19 18 18 17 15 14 14 13 13 12 11 11 10 9 7
3 3 1 2 5 3 3 5 5 6 4 9 6 7 5 5 10 3 18 14 20 17 14 15 22 22 22 23 23 23 22 22 21 21 20 19 18 17 17 16 15 14 13 12 10 10 10 9 8
2 3 1 5 5 3 2 6 3 2 3 10 10 11 5 3 6 6 11 8 10 16 12 12 19 19 21 22 22 22 22 21 21 21 20 19 18 17 17 16 16 15 14 12 11 10 10 9 8
5 4 5 5 2 1 1 1 3 2 5 5 8 7 8 22 4 6 8 8 8 9 11 9 12 16 19 19 19 20 20 20 21 21 20 19 18 17 16 15 14 13 13 12 12 12 11 9 8
3 4 3 5 6 4 1 4 3 3 5 7 7 6 14 8 9 8 9 9 7 6 6 7 7 10 11 11 15 16 17 18 18 18 19 18 17 16 14 13 13 13 12 11 11 11 11 10 8
2 2 5 4 4 3 3 5 3 2 5 4 3 3 9 3 5 7 5 6 5 5 5 4 6 7 8 7 9 11 14 14 15 14 15 13 8 9 12 12 14 14 12 11 11 11 11 10 10
3 3 7 0 3 6 9 4 6 6 9 1 4 8 7 2 3 4 3 4 6 6 4 4 4 6 7 8 8 7 6 7 8 9 9 8 8 6 7 9 13 12 12 12 12 11 11 10 3
2 4 1 3 2 7 8 8 2 6 16 5 8 11 11 8 4 6 5 4 2 4 3 6 5 4 9 7 6 4 3 6 6 9 8 8 4 4 4 3 3 3 10 4 6 6 4 4 4
1 4 1 0 4 5 7 12 8 11 16 2 5 10 9 10 8 8 7 10 10 7 8 6 5 6 6 3 5 5 6 4 3 3 4 4 2 2 2 3 4 4 3 4 4 2 3 4 5
4 1 3 5 6 6 7 10 20 16 11 6 5 8 10 10 10 8 7 8 7 13 12 13 10 8 7 5 4 6 5 5 6 5 6 5 5 5 4 3 2 3 3 4 4 4 4 5 5
2 2 5 7 7 6 7 12 10 9 6 10 5 8 7 9 11 7 4 8 9 9 15 16 15 13 9 10 10 8 6 6 6 6 8 8 6 5 5 4 5 4 4 4 5 5 5 5 5
2 4 6 6 3 6 9 13 13 9 5 8 6 5 8 8 10 10 7 7 10 11 6 11 13 14 10 11 6 5 7 8 8 8 10 11 10 9 8 6 6 7 5 5 4 4 3 4 4
2 4 4 4 3 4 7 4 4 6 7 8 5 4 5 8 8 10 9 8 8 5 9 9 10 16 15 12 8 7 5 4 6 5 4 10 12 11 9 7 7 6 5 6 5 4 4 4 5
6 1 1 8 2 3 1 5 7 12 7 9 6 4 5 6 8 9 10 9 7 7 5 10 11 10 13 10 7 7 7 6 7 6 7 11 13 10 9 7 5 6 5 6 5 4 5 4 5
3 2 3 4 6 6 5 7 5 9 8 8 7 6 5 5 7 8 11 10 9 8 6 7 9 14 16 10 7 5 5 8 7 8 9 14 9 12 10 6 6 7 6 5 5 6 5 3 5
2 3 3 4 4 7 10 12 11 7 6 9 7 8 6 7 5 6 8 10 10 9 7 7 6 10 7 5 6 5 10 8 11 9 12 12 8 12 10 6 7 7 8 9 8 5 6 5 4
4 3 2 5 5 5 9 20 16 8 6 5 6 8 9 6 6 6 7 6 8 10 10 8 8 8 7 8 6 5 6 7 4 3 6 6 9 10 9 9 8 9 7 7 9 7 3 4 6
1 3 2 5 4 5 7 10 3 2 4 6 7 8 6 7 8 6 6 7 7 8 10 11 10 10 8 8 3 3 2 1 1 3 4 8 9 9 10 10 9 9 8 8 9 9 9 5 4
1 4 2 4 7 3 5 10 4 3 4 5 10 8 7 7 6 5 5 8 8 6 8 10 11 10 9 8 8 11 12 13 11 11 6 6 10 11 10 10 11 9 8 8 9 8 8 5 5
6 2 2 3 2 2 5 3 7 8 6 5 8 9 7 8 7 8 9 8 11 8 7 8 9 10 12 9 12 12 14 12 9 4 7 7 9 10 10 11 11 10 8 9 10 9 9 7 4
3 3 5 4 3 2 5 4 4 3 2 8 11 7 8 8 8 7 8 9 8 8 7 7 8 9 9 8 10 14 15 13 5 4 6 5 4 6 9 9 9 9 9 10 9 9 10 10 5
5 6 5 6 4 5 4 4 13 10 16 7 9 9 9 8 8 8 9 10 11 10 9 7 7 10 8 9 9 12 15 13 13 12 8 6 5 5 6 8 8 7 8 8 8 8 8 9 8
2 7 6 5 4 5 1 9 10 7 7 7 8 9 9 10 7 9 12 10 10 13 12 9 8 9 8 8 11 9 12 8 9 10 9 7 7 6 7 7 7 8 9 7 8 7 7 8 6
2 3 3 2 2 2 6 7 12 15 12 9 9 7 10 10 12 11 11 9 10 13 13 11 12 11 8 10 9 10 10 10 10 10 8 7 5 6 9 9 9 9 9 10 9 6 7 7 6
6 6 2 3 2 6 6 7 13 9 10 9 9 8 10 10 14 15 9 8 11 12 13 11 11 14 11 9 10 10 12 11 11 7 9 8 6 8 9 10 10 10 9 9 9 6 6 7 5
1 2 2 3 4 4 6 11 5 9 9 7 9 10 12 18 17 16 13 11 13 13 13 13 11 14 11 10 10 10 9 10 10 10 6 6 7 9 10 11 11 11 10 8 7 6 7 7 6
6 7 6 5 4 5 4 18 3 8 4 5 9 8 12 15 16 10 12 14 12 16 15 13 11 11 12 12 9 11 8 8 10 10 9 9 10 10 11 11 11 10 9 9 8 8 8 9 8
Wind_Direction
309 319 99 46 67 63 265 260 262 300 336 208 182 210 228 219 171 214 321 172 137 146 160 169 170 159 156 153 151 150 144 143 141 137 137 138 142 145 147 148 148 149 150 152 154 149 140 128 119
307 320 45 86 96 85 266 249 227 221 259 282 278 213 198 254 220 288 97 228 151 147 158 168 175 162 160 155 153 151 150 148 148 146 147 148 152 152 153 154 155 156 158 162 159 152 137 130 120
286 60 89 104 127 191 214 219 190 247 261 239 294 234 239 239 200 201 217 164 152 147 160 171 177 166 162 157 156 154 155 153 153 156 155 155 157 157 159 161 160 163 167 170 161 150 141 136 130
95 31 22 102 232 241 207 213 252 297 320 200 242 297 299 290 292 179 144 152 151 149 161 174 180 170 163 159 162 159 159 158 160 159 161 161 162 161 166 167 166 171 174 172 166 158 151 150 143
47 77 60 167 246 249 235 248 269 297 286 281 327 286 260 27 335 126 134 155 152 150 161 174 181 174 166 162 167 164 163 163 164 163 165 167 168 168 172 174 173 175 178 175 175 166 158 159 156
82 120 112 228 224 164 251 230 252 247 306 289 338 324 307 353 32 346 117 134 144 145 154 174 179 180 170 169 171 168 168 168 168 168 170 172 173 176 177 179 178 178 180 178 177 173 168 164 166
160 131 212 258 253 337 236 308 289 322 297 320 302 340 298 344 91 80 88 90 117 143 148 170 179 182 177 175 174 172 172 173 173 172 174 174 176 181 181 183 183 183 184 180 179 177 177 175 177
156 127 217 218 236 251 258 355 291 32 310 322 357 353 338 340 19 70 69 81 92 111 141 167 175 183 174 176 178 177 179 177 177 177 177 178 178 182 187 184 187 187 187 184 187 184 181 182 184
147 198 213 223 139 229 290 358 222 242 234 352 329 343 298 88 83 48 11 83 98 130 155 194 169 178 172 156 175 179 185 188 181 182 185 178 176 183 192 192 191 187 188 188 192 193 186 190 192
157 191 214 208 59 300 286 193 320 331 301 201 305 304 323 44 111 106 67 269 153 183 186 175 182 169 157 163 166 159 171 186 193 188 195 192 192 181 182 195 201 194 194 193 193 197 195 201 188
171 192 271 31 25 295 295 292 296 303 286 85 334 315 326 325 306 162 156 187 239 201 183 180 184 204 176 171 157 153 148 189 195 202 191 200 194 180 185 160 201 183 203 193 195 193 193 185 191
165 247 291 263 332 306 289 318 281 250 267 320 316 280 289 301 289 260 206 177 176 190 183 183 197 187 200 166 169 160 167 161 161 178 176 148 166 204 202 183 189 186 182 188 186 176 180 204 204
152 41 342 303 279 261 284 275 282 258 301 275 288 299 290 288 279 257 228 280 204 188 190 187 173 203 188 193 165 165 174 189 167 171 183 172 184 192 175 193 212 207 171 183 188 186 192 204 204
230 233 262 244 222 226 234 261 255 277 6 307 271 255 268 286 283 294 227 232 236 227 194 184 186 187 192 201 201 180 183 168 188 186 196 195 194 196 195 177 194 230 200 192 192 191 202 207 201
273 298 306 250 265 247 206 260 255 300 335 302 8 315 293 279 294 287 263 233 222 226 221 195 192 174 196 202 191 222 181 185 206 210 193 192 190 203 197 188 196 209 200 199 187 183 191 206 213
63 45 26 277 311 281 153 283 295 15 331 327 360 9 0 338 320 315 306 290 275 219 193 182 189 185 190 197 196 201 201 195 226 191 230 208 197 196 195 196 199 187 186 195 194 172 201 210 212
2 120 264 311 334 306 96 290 331 338 338 312 320 316 310 319 321 318 315 312 283 274 237 184 185 173 198 202 198 195 177 196 209 198 194 211 200 213 195 206 187 166 179 199 196 185 199 192 216
283 344 315 261 311 7 304 235 285 289 300 286 292 301 305 297 291 295 302 314 306 269 215 274 195 193 190 186 182 189 199 207 215 215 203 203 212 177 182 177 168 171 182 196 186 194 191 186 211
198 191 231 275 312 1 301 290 291 262 267 284 296 305 290 279 257 287 300 311 319 310 272 225 229 218 162 156 172 195 212 225 211 210 215 209 180 176 175 175 178 184 195 201 188 183 183 199 172
168 164 249 290 278 320 275 283 288 257 225 213 280 280 275 285 297 304 316 309 309 304 309 288 237 249 232 190 182 185 210 240 250 145 198 176 183 170 172 172 188 191 196 186 186 180 165 183 178
305 160 248 234 287 259 322 289 128 249 258 250 259 266 267 257 290 310 322 310 308 307 307 305 277 251 216 227 107 98 113 128 135 212 210 201 176 168 190 177 190 192 189 197 195 190 184 177 199
316 205 235 305 20 310 56 286 306 270 290 286 278 274 278 301 307 293 292 301 302 288 285 284 291 284 255 219 214 213 217 220 224 229 194 174 172 187 188 184 193 187 188 193 197 184 190 145 183
222 164 287 268 260 41 292 292 265 353 282 291 287 281 281 270 262 290 295 272 289 288 268 271 280 270 267 253 226 223 227 232 222 177 175 175 183 193 185 189 184 187 190 199 185 177 181 195 180
56 21 20 45 84 30 248 183 258 251 194 307 300 279 274 294 299 286 278 280 273 284 280 271 269 269 261 238 230 220 227 217 190 182 188 188 178 184 189 180 182 184 192 185 184 179 181 192 188
78 53 344 342 359 228 191 291 255 271 288 266 268 279 285 284 288 295 301 302 304 295 290 283 284 295 285 255 224 216 226 229 204 202 201 167 164 194 178 166 175 187 194 184 168 175 183 185 188
200 149 159 239 233 242 28 249 255 239 246 244 250 267 287 291 285 278 276 275 282 294 288 281 277 276 283 263 253 230 219 223 231 212 200 189 191 189 136 178 179 183 178 172 170 178 183 171 185
162 188 197 136 268 344 225 287 290 279 257 258 260 262 277 289 298 290 289 276 276 286 285 278 282 275 264 268 249 231 220 197 205 212 201 187 158 146 158 173 176 174 172 168 164 172 176 167 170
161 167 66 7 290 258 265 257 239 300 282 260 281 300 292 288 294 298 302 285 285 280 278 275 271 269 265 258 249 237 223 210 208 183 191 178 158 143 155 168 165 165 169 166 169 169 146 151 160
275 218 91 144 170 236 302 262 197 245 264 287 293 302 304 305 295 297 308 303 287 284 279 269 269 267 266 252 239 225 213 201 186 187 183 165 139 151 166 167 160 159 161 162 160 142 143 148 150
179 206 161 148 239 225 212 263 211 253 326 300 294 304 317 313 303 297 299 306 303 303 289 268 264 257 254 254 244 219 207 183 183 179 171 159 167 166 164 162 152 152 156 153 158 149 161 160 164